Regional Weather Roundup
Issued by NWS Midland/Odessa, TX

Skip options and go directly to product.
Home | Oldest Version | Previous Version | Current Version | All | Graphics & Text | Save Text | Print | Product List | Glossary On

Skip product version selection by date and time.   
456
ASUS44 KMAF 271310
RWRMAF
MIDLAND AREA WEATHER ROUNDUP
NATIONAL WEATHER SERVICE MIDLAND TX
800 AM CDT MON APR 27 2015

...IN SOUTHWEST TEXAS AND SOUTHEAST NEW MEXICO...

CITY           SKY/WX    TMP DP  RH WIND       PRES   REMARKS
ALPINE         CLEAR     50  32  50 SW10      29.93R
ANDREWS        CLOUDY    48  46  92 N6        29.83R
ARTESIA        CLEAR     46  43  87 N12       29.86R
BIG SPRING     SUNNY     56  52  86 CALM      29.80R
CARLSBAD       PTCLDY    47  36  65 W6        29.83R
DRYDEN           N/A     57  36  45 W6        29.79R
FORT STOCKTON  CLEAR     52  34  50 SW8       29.82R
GUAD PASS      CLEAR     41  34  76 S8        29.88R WCI  36
HOBBS          MOCLDY    46  46 100 N6        29.83R
MARFA          CLEAR     45  34  65 W9        29.91R WCI  40
MIDLAND AIRPK  SUNNY     50  42  74 NW6       29.81R
MIDLAND INTL   SUNNY     50  40  68 NW8       29.80R
ODESSA         CLEAR     51  37  58 NW8       29.80R
PECOS          CLEAR     50  37  60 W7        29.82R
PRESIDIO       FAIR      56  32  40 SW3       29.87R
SEMINOLE       PTCLDY    51  49  93 N3        29.83R
SNYDER         CLOUDY    54  53  96 N9        29.79R
WINK           CLEAR     46  32  58 W3        29.79R
$$
...OTHER STATIONS IN TEXAS...

CITY           SKY/WX    TMP DP  RH WIND       PRES   REMARKS
ABILENE        CLOUDY    57  56  96 NW9       29.73R
AMARILLO       RAIN      45  44  97 N20       29.87R FOG     WCI  37
AUSTIN         PTSUNNY   64  63  96 NE3       29.68R
BROWNSVILLE    CLOUDY    81  78  91 W10       29.56R FOG
CORPUS CHRISTI CLOUDY    78  74  87 NE9       29.56R FOG
DALLAS FTW     PTSUNNY   65  60  84 E12       29.70R
DEL RIO        SUNNY     60  42  51 NW5       29.73R
EL PASO        PTCLDY    51  36  56 N8        29.86R
HOUSTON INT    PTSUNNY   67  63  87 NE9       29.66R
LUBBOCK        PTSUNNY   48  45  89 N15       29.80S
SAN ANGELO     SUNNY     57  53  86 NW9       29.75R
SAN ANTONIO    PTSUNNY   64  59  83 NW9       29.67R
WACO           PTSUNNY   64  61  90 E9        29.67F
WICHITA FALLS  NOT AVBL
$$
...OTHER LOCATIONS IN NEW MEXICO...

CITY           SKY/WX    TMP DP  RH WIND       PRES   REMARKS
ALAMAGORDO     PTCLDY    46  41  81 NW10      29.88R
ALBUQUERQUE    PTCLDY    44  39  82 SW3       29.98R
CANNON AFB     NOT AVBL
CLOVIS         CLOUDY    45  41  87 N16       29.89R WCI  37
HOLLOMAN AFB   NOT AVBL
ROSWELL        CLOUDY    51  44  77 N14       29.86R
RUIDOSO        CLOUDY    37  36  93 N8        29.96R WCI  31
SANTA FE       CLOUDY    39  36  89 NE8       29.98R WCI  33
TRUTH OR CONSE CLEAR     45  42  89 NW6       29.93R
TUCUMCARI      RAIN      44  40  85 N17G30    29.95R WCI  36
$$

USA.gov is the U.S. government's official web portal to all federal, state and local government web resources and services.